Location: Chillicothe
(39.7950°N, 93.5520°W)
Time: 15:35:18
(UTC-06:00)

BEESAT - Pass Details

Date: 25 November 2019
Orbit: 701 x 709 km, 98.6° (Epoch: 14 December)

Event Time Altitude Azimuth Distance (km) Brightness Sun altitude
Rises 03:46:12 0° 128° (SE) 3,077 ? -38.7°
Reaches altitude 10° 03:48:55 10° 112° (ESE) 2,163 ? -38.2°
Enters shadow 03:51:46 20° 76° (ENE) 1,592 ? -37.6°
